Hourly Data Report for October 08, 2016

All times are specified in Local Standard Time (LST). Add 1 hour to adjust for Daylight Saving Time where and when it is observed.

KUGAARUK CLIMATE
NUNAVUT

68°32'15.060" N
89°47'47.020" W
15.80 m
2303094
71407
NBB

Download Data

Hourly Data (October 2016)
Hourly Data Report for October 8, 2016
Temp Definition
°C
Dew Point Temp Definition
°C
Rel Hum Definition
%
Wind Dir Definition
10's deg

Wind Spd Definition
km/h
Visibility Definition
km
Stn Press Definition
kPa
Hmdx Definition


Wind Chill Definition


Weather Definition


TIME
00:00 -1.1 -2.7 89 28 10   102.12   -5 LegendNANA
01:00 -1.2 -2.9 89 25 11   102.10   -5 LegendNANA
02:00 -1.6 -2.9 90 24 11   102.07   -5 LegendNANA
03:00 -1.3 -2.8 90 26 9   102.06   -5 LegendNANA
04:00 -1.7 -3.7 86 34 4   102.04   -3 LegendNANA
05:00 -1.6 -3.4 88 16 3   102.02   -3 LegendNANA
06:00 -1.2 -3.2 86 31 13   101.97   -5 LegendNANA
07:00 -1.7 -4.4 82 33 13   101.94   -6 LegendNANA
08:00 -2.0 -4.4 84 30 10   101.90   -6 LegendNANA
09:00 -2.1 -4.7 82 29 14   101.83   -7 LegendNANA
10:00 -2.3 -4.2 87 28 14   101.77   -7 LegendNANA
11:00 -2.0 -3.1 92 26 17   101.72   -7 LegendNANA
12:00 -1.7 -3.6 86 28 20   101.66   -7 LegendNANA
13:00 -1.8 -3.3 90 28 24   101.61   -8 LegendNANA
14:00 -1.7 -3.5 88 29 24   101.58   -8 LegendNANA
15:00 -2.1 -3.3 91 30 16   101.56   -7 LegendNANA
16:00 -1.7 -3.4 88 29 22   101.52   -8 LegendNANA
17:00 -2.3 -3.5 91 29 25   101.49   -9 LegendNANA
18:00 -2.0 -4.7 82 30 20   101.45   -8 LegendNANA
19:00 -2.0 -4.1 85 28 19   101.40   -8 LegendNANA
20:00 -1.9 -4.4 83 29 16   101.35   -7 LegendNANA
21:00 -2.3 -4.1 88 29 16   101.31   -7 LegendNANA
22:00 -3.0 -4.2 92 28 8   101.28   -6 LegendNANA
23:00 -2.9 -4.0 92 29 9   101.27   -6 LegendNANA

Notes on Data Quality.

Legend

  • E = Estimated
  • M = Missing
  • NA = Not Available
  • ‡ = Partner data that is not subject to review by the National Climate Archives
Date modified: